Location: Ffald-y-Brenin
(52.0833°N, 4.0000°W)
Time: 17:08:19
(UTC+00:00)

Cosmos 1470 Rocket - Pass Details

Date: 18 February 2020
Orbit: 604 x 633 km, 82.5° (Epoch: 01 April)

Event Time Altitude Azimuth Distance (km) Brightness Sun altitude
Rises 06:39:19 0° 349° (N) 2,922 6.8 -7.9°
Reaches altitude 10° 06:41:34 10° 350° (N) 2,014 6.0 -7.5°
Maximum altitude 06:46:02 87° 74° (ENE) 638 3.7 -6.8°
Drops below altitude 10° 06:50:31 10° 170° (S) 2,011 6.5 -6.2°
Sets 06:52:45 0° 170° (S) 2,916 7.3 -5.8°
